| time (UTC) | temp F | wind direction | speed MPH | gust MPH | rain 1hr in | rain 24hr in | rain mn in | humidity % | barometer mb |
| 20260905150700 | 81 | 175 | 5.0 | 9.0 | 0.00 | 0.00 | 0.00 | 63 | 1015.8 |
| 20260905150251 | 81 | 173 | 7.0 | 10.0 | 0.00 | 0.00 | 0.00 | 62 | 1015.8 |
| 20260905150149 | 81 | 165 | 7.0 | 10.0 | 0.00 | 0.00 | 0.00 | 62 | 1015.8 |
| 20260905145639 | 81 | 187 | 6.0 | 12.0 | 0.00 | 0.00 | 0.00 | 62 | 1015.6 |
| 20260905145252 | 82 | 161 | 7.0 | 12.0 | 0.00 | 0.00 | 0.00 | 61 | 1015.5 |
| 20260905145145 | 82 | 159 | 7.0 | 12.0 | 0.00 | 0.00 | 0.00 | 61 | 1015.5 |
| 20260905144654 | 82 | 205 | 10.0 | 12.0 | 0.00 | 0.00 | 0.00 | 62 | 1015.4 |
| 20260905144251 | 82 | 173 | 6.0 | 12.0 | 0.00 | 0.00 | 0.00 | 63 | 1015.5 |
| 20260905144204 | 82 | 175 | 5.0 | 11.0 | 0.00 | 0.00 | 0.00 | 64 | 1015.5 |
| 20260905143650 | 81 | 153 | 7.0 | 10.0 | 0.00 | 0.00 | 0.00 | 65 | 1015.4 |
| 20260905143247 | 80 | 171 | 6.0 | 13.0 | 0.00 | 0.00 | 0.00 | 66 | 1015.3 |
| 20260905143140 | 80 | 184 | 7.0 | 13.0 | 0.00 | 0.00 | 0.00 | 65 | 1015.3 |
| 20260905142649 | 80 | 187 | 9.0 | 13.0 | 0.00 | 0.00 | 0.00 | 66 | 1015.2 |
| 20260905142246 | 80 | 188 | 8.0 | 15.0 | 0.00 | 0.00 | 0.00 | 66 | 1015.1 |
| 20260905142139 | 80 | 187 | 7.0 | 15.0 | 0.00 | 0.00 | 0.00 | 67 | 1015.2 |
| 20260905141653 | 79 | 188 | 11.0 | 15.0 | 0.00 | 0.00 | 0.00 | 66 | 1015.1 |
| 20260905141245 | 79 | 173 | 8.0 | 15.0 | 0.00 | 0.00 | 0.00 | 67 | 1015.1 |
| 20260905141142 | 79 | 192 | 10.0 | 15.0 | 0.00 | 0.00 | 0.00 | 67 | 1015.1 |
| 20260905140651 | 78 | 211 | 7.0 | 13.0 | 0.00 | 0.00 | 0.00 | 68 | 1014.9 |
| 20260905140248 | 78 | 230 | 9.0 | 13.0 | 0.00 | 0.00 | 0.00 | 69 | 1014.8 |
| 20260905140139 | 77 | 205 | 7.0 | 13.0 | 0.00 | 0.00 | 0.00 | 69 | 1014.8 |
| 20260905135650 | 77 | 240 | 7.0 | 11.0 | 0.00 | 0.00 | 0.00 | 69 | 1014.8 |
| 20260905135247 | 76 | 224 | 9.0 | 13.0 | 0.00 | 0.00 | 0.00 | 71 | 1014.7 |
| 20260905135200 | 76 | 229 | 9.0 | 13.0 | 0.00 | 0.00 | 0.00 | 71 | 1014.8 |
| 20260905134708 | 75 | 200 | 7.0 | 10.0 | 0.00 | 0.00 | 0.00 | 72 | 1014.7 |
| 20260905134243 | 74 | 230 | 7.0 | 11.0 | 0.00 | 0.00 | 0.00 | 73 | 1014.7 |
| 20260905134216 | 74 | 225 | 6.0 | 11.0 | 0.00 | 0.00 | 0.00 | 74 | 1014.7 |
| 20260905133645 | 73 | 204 | 6.0 | 11.0 | 0.00 | 0.00 | 0.00 | 74 | 1014.7 |
| 20260905133242 | 72 | 237 | 6.0 | 9.0 | 0.00 | 0.00 | 0.00 | 75 | 1014.8 |
| 20260905133156 | 72 | 230 | 6.0 | 9.0 | 0.00 | 0.00 | 0.00 | 76 | 1014.8 |
| 20260905132645 | 71 | 230 | 4.0 | 6.0 | 0.00 | 0.00 | 0.00 | 77 | 1014.9 |
| 20260905132241 | 71 | 250 | 2.0 | 4.0 | 0.00 | 0.00 | 0.00 | 78 | 1015.0 |
| 20260905132138 | 71 | 281 | 2.0 | 4.0 | 0.00 | 0.00 | 0.00 | 78 | 1015.0 |
| 20260905131648 | 71 | 264 | 2.0 | 7.0 | 0.00 | 0.00 | 0.00 | 77 | 1014.9 |
| 20260905131245 | 71 | 257 | 3.0 | 7.0 | 0.00 | 0.00 | 0.00 | 77 | 1014.7 |
| 20260905131158 | 71 | 226 | 4.0 | 9.0 | 0.00 | 0.00 | 0.00 | 77 | 1014.7 |
| 20260905130646 | 71 | 211 | 5.0 | 10.0 | 0.00 | 0.00 | 0.00 | 76 | 1014.5 |
| 20260905130242 | 71 | 241 | 6.0 | 10.0 | 0.00 | 0.00 | 0.00 | 77 | 1014.5 |
| 20260905130215 | 71 | 209 | 6.0 | 10.0 | 0.00 | 0.00 | 0.00 | 77 | 1014.4 |
| 20260905125704 | 70 | 197 | 6.0 | 10.0 | 0.00 | 0.00 | 0.00 | 77 | 1014.4 |
| 20260905125238 | 70 | 224 | 7.0 | 11.0 | 0.00 | 0.00 | 0.00 | 78 | 1014.3 |
| 20260905125151 | 70 | 207 | 8.0 | 11.0 | 0.00 | 0.00 | 0.00 | 79 | 1014.3 |
| 20260905124640 | 69 | 240 | 8.0 | 11.0 | 0.00 | 0.00 | 0.00 | 79 | 1014.3 |
| 20260905124256 | 69 | 224 | 7.0 | 11.0 | 0.00 | 0.00 | 0.00 | 80 | 1014.1 |
| 20260905124149 | 69 | 234 | 8.0 | 11.0 | 0.00 | 0.00 | 0.00 | 80 | 1014.2 |
| 20260905123639 | 69 | 211 | 7.0 | 10.0 | 0.00 | 0.00 | 0.00 | 80 | 1014.1 |
| 20260905123256 | 69 | 217 | 7.0 | 10.0 | 0.00 | 0.00 | 0.00 | 80 | 1014.0 |
| 20260905123149 | 69 | 242 | 7.0 | 10.0 | 0.00 | 0.00 | 0.00 | 80 | 1014.0 |
| 20260905122643 | 69 | 227 | 8.0 | 10.0 | 0.00 | 0.00 | 0.00 | 80 | 1014.0 |
| 20260905122316 | 69 | 234 | 8.0 | 10.0 | 0.00 | 0.00 | 0.00 | 80 | 1014.0 |
| 20260905122151 | 69 | 224 | 8.0 | 11.0 | 0.00 | 0.00 | 0.00 | 80 | 1013.9 |
| 20260905121638 | 69 | 211 | 8.0 | 11.0 | 0.00 | 0.00 | 0.00 | 80 | 1013.9 |
| 20260905121310 | 69 | 228 | 8.0 | 11.0 | 0.00 | 0.00 | 0.00 | 80 | 1013.9 |
| 20260905121146 | 69 | 231 | 8.0 | 11.0 | 0.00 | 0.00 | 0.00 | 80 | 1013.9 |
| 20260905120657 | 69 | 226 | 8.0 | 10.0 | 0.00 | 0.00 | 0.00 | 81 | 1013.9 |
| 20260905120254 | 69 | 205 | 7.0 | 9.0 | 0.00 | 0.00 | 0.00 | 81 | 1013.9 |
| 20260905120145 | 69 | 224 | 7.0 | 9.0 | 0.00 | 0.00 | 0.00 | 81 | 1013.9 |
| 20260905115654 | 69 | 232 | 7.0 | 10.0 | 0.00 | 0.00 | 0.00 | 81 | 1013.9 |
| 20260905115251 | 69 | 205 | 6.0 | 11.0 | 0.00 | 0.00 | 0.00 | 80 | 1014.0 |
| 20260905115204 | 69 | 192 | 7.0 | 11.0 | 0.00 | 0.00 | 0.00 | 81 | 1014.0 |
| 20260905114654 | 69 | 209 | 7.0 | 10.0 | 0.00 | 0.00 | 0.00 | 81 | 1014.0 |
| 20260905114251 | 69 | 231 | 8.0 | 10.0 | 0.00 | 0.00 | 0.00 | 82 | 1014.0 |
| 20260905114143 | 69 | 211 | 8.0 | 10.0 | 0.00 | 0.00 | 0.00 | 82 | 1014.0 |
| 20260905113653 | 69 | 204 | 8.0 | 10.0 | 0.00 | 0.00 | 0.00 | 82 | 1014.1 |
| 20260905113250 | 69 | 168 | 7.0 | 9.0 | 0.00 | 0.00 | 0.00 | 81 | 1014.1 |
| 20260905113143 | 69 | 191 | 7.0 | 9.0 | 0.00 | 0.00 | 0.00 | 81 | 1014.3 |
| 20260905112653 | 69 | 206 | 6.0 | 7.0 | 0.00 | 0.00 | 0.00 | 80 | 1014.3 |
| 20260905112249 | 70 | 193 | 6.0 | 7.0 | 0.00 | 0.00 | 0.00 | 80 | 1014.4 |
| 20260905112146 | 70 | 206 | 6.0 | 7.0 | 0.00 | 0.00 | 0.00 | 80 | 1014.4 |
| 20260905111656 | 70 | 197 | 6.0 | 7.0 | 0.00 | 0.00 | 0.00 | 79 | 1014.4 |
| 20260905111252 | 70 | 200 | 6.0 | 8.0 | 0.00 | 0.00 | 0.00 | 79 | 1014.3 |
| 20260905111145 | 70 | 211 | 6.0 | 8.0 | 0.00 | 0.00 | 0.00 | 79 | 1014.4 |
| 20260905110655 | 71 | 193 | 6.0 | 9.0 | 0.00 | 0.00 | 0.00 | 78 | 1014.4 |
| 20260905110252 | 71 | 190 | 7.0 | 10.0 | 0.00 | 0.00 | 0.00 | 77 | 1014.4 |
| 20260905110144 | 71 | 177 | 8.0 | 10.0 | 0.00 | 0.00 | 0.00 | 77 | 1014.5 |
| 20260905105655 | 72 | 182 | 8.0 | 11.0 | 0.00 | 0.00 | 0.00 | 76 | 1014.4 |
| 20260905105249 | 72 | 196 | 8.0 | 11.0 | 0.00 | 0.00 | 0.00 | 76 | 1014.5 |
| 20260905105142 | 72 | 191 | 8.0 | 11.0 | 0.00 | 0.00 | 0.00 | 75 | 1014.5 |
| 20260905104651 | 72 | 164 | 8.0 | 10.0 | 0.00 | 0.00 | 0.00 | 75 | 1014.6 |
| 20260905104248 | 72 | 177 | 8.0 | 11.0 | 0.00 | 0.00 | 0.00 | 74 | 1014.6 |
| 20260905104146 | 72 | 178 | 7.0 | 11.0 | 0.00 | 0.00 | 0.00 | 74 | 1014.7 |
| 20260905103655 | 72 | 173 | 9.0 | 11.0 | 0.00 | 0.00 | 0.00 | 75 | 1014.5 |
| 20260905103252 | 72 | 188 | 10.0 | 12.0 | 0.00 | 0.00 | 0.00 | 74 | 1014.4 |
| 20260905103146 | 72 | 207 | 9.0 | 12.0 | 0.00 | 0.00 | 0.00 | 74 | 1014.5 |
| 20260905102655 | 72 | 179 | 8.0 | 11.0 | 0.00 | 0.00 | 0.00 | 74 | 1014.6 |
| 20260905102252 | 72 | 146 | 8.0 | 11.0 | 0.00 | 0.00 | 0.00 | 73 | 1014.7 |
| 20260905102144 | 72 | 155 | 8.0 | 11.0 | 0.00 | 0.00 | 0.00 | 73 | 1014.7 |
| 20260905101715 | 73 | 192 | 7.0 | 10.0 | 0.00 | 0.00 | 0.00 | 72 | 1014.6 |
| 20260905101251 | 73 | 161 | 6.0 | 10.0 | 0.00 | 0.00 | 0.00 | 71 | 1014.7 |
| 20260905101144 | 73 | 131 | 6.0 | 10.0 | 0.00 | 0.00 | 0.00 | 71 | 1014.7 |
| 20260905100654 | 74 | 154 | 7.0 | 9.0 | 0.00 | 0.00 | 0.00 | 70 | 1014.8 |
| 20260905100309 | 74 | 169 | 7.0 | 9.0 | 0.00 | 0.00 | 0.00 | 69 | 1014.7 |
| 20260905100201 | 74 | 184 | 7.0 | 10.0 | 0.00 | 0.00 | 0.00 | 69 | 1014.7 |
| 20260905095648 | 74 | 173 | 7.0 | 10.0 | 0.00 | 0.00 | 0.00 | 68 | 1014.6 |
| 20260905095246 | 75 | 188 | 7.0 | 10.0 | 0.00 | 0.00 | 0.00 | 68 | 1014.5 |
| 20260905095138 | 75 | 194 | 7.0 | 10.0 | 0.00 | 0.00 | 0.00 | 68 | 1014.6 |
| 20260905094652 | 75 | 182 | 7.0 | 13.0 | 0.00 | 0.00 | 0.00 | 68 | 1014.6 |
| 20260905094244 | 75 | 196 | 8.0 | 13.0 | 0.00 | 0.00 | 0.00 | 67 | 1014.6 |
| 20260905094141 | 75 | 179 | 9.0 | 13.0 | 0.00 | 0.00 | 0.00 | 67 | 1014.5 |
| 20260905093650 | 75 | 180 | 8.0 | 14.0 | 0.00 | 0.00 | 0.00 | 67 | 1014.6 |
| 20260905093245 | 76 | 153 | 8.0 | 13.0 | 0.00 | 0.00 | 0.00 | 67 | 1014.7 |
| 20260905093138 | 76 | 190 | 9.0 | 15.0 | 0.00 | 0.00 | 0.00 | 67 | 1014.7 |
| 20260905092648 | 76 | 189 | 10.0 | 16.0 | 0.00 | 0.00 | 0.00 | 67 | 1014.7 |
| 20260905092244 | 76 | 178 | 11.0 | 16.0 | 0.00 | 0.00 | 0.00 | 66 | 1014.6 |
| 20260905092217 | 76 | 197 | 11.0 | 16.0 | 0.00 | 0.00 | 0.00 | 66 | 1014.6 |
| 20260905091647 | 76 | 175 | 9.0 | 14.0 | 0.00 | 0.00 | 0.00 | 66 | 1014.6 |
| 20260905091244 | 76 | 205 | 9.0 | 14.0 | 0.00 | 0.00 | 0.00 | 66 | 1014.7 |
| 20260905091157 | 76 | 192 | 9.0 | 14.0 | 0.00 | 0.00 | 0.00 | 66 | 1014.7 |
| 20260905090646 | 76 | 184 | 10.0 | 16.0 | 0.00 | 0.00 | 0.00 | 66 | 1014.7 |
| 20260905090242 | 76 | 180 | 10.0 | 16.0 | 0.00 | 0.00 | 0.00 | 66 | 1014.7 |
| 20260905090216 | 76 | 178 | 10.0 | 16.0 | 0.00 | 0.00 | 0.00 | 66 | 1014.6 |
| 20260905085705 | 76 | 181 | 10.0 | 18.0 | 0.00 | 0.00 | 0.00 | 66 | 1014.6 |
| 20260905085305 | 76 | 186 | 11.0 | 19.0 | 0.00 | 0.00 | 0.00 | 66 | 1014.7 |
| 20260905085213 | 76 | 205 | 11.0 | 19.0 | 0.00 | 0.00 | 0.00 | 66 | 1014.6 |
| 20260905084643 | 76 | 169 | 11.0 | 19.0 | 0.00 | 0.00 | 0.00 | 66 | 1014.7 |
| 20260905084239 | 76 | 193 | 10.0 | 14.0 | 0.00 | 0.00 | 0.00 | 66 | 1014.8 |
| 20260905084152 | 76 | 146 | 10.0 | 17.0 | 0.00 | 0.00 | 0.00 | 66 | 1014.8 |
| 20260905083646 | 75 | 187 | 10.0 | 17.0 | 0.00 | 0.00 | 0.00 | 66 | 1014.8 |
| 20260905083243 | 75 | 178 | 11.0 | 18.0 | 0.00 | 0.00 | 0.00 | 66 | 1014.8 |
| 20260905083156 | 75 | 192 | 11.0 | 18.0 | 0.00 | 0.00 | 0.00 | 65 | 1014.8 |
| 20260905082645 | 75 | 182 | 10.0 | 18.0 | 0.00 | 0.00 | 0.00 | 65 | 1014.8 |
| 20260905082306 | 75 | 225 | 10.0 | 16.0 | 0.00 | 0.00 | 0.00 | 65 | 1014.9 |
| 20260905082153 | 75 | 162 | 11.0 | 16.0 | 0.00 | 0.00 | 0.00 | 65 | 1014.9 |
| 20260905081644 | 76 | 207 | 10.0 | 15.0 | 0.00 | 0.00 | 0.00 | 64 | 1014.9 |
| 20260905081301 | 75 | 171 | 11.0 | 16.0 | 0.00 | 0.00 | 0.00 | 64 | 1014.9 |
| 20260905081152 | 75 | 159 | 10.0 | 16.0 | 0.00 | 0.00 | 0.00 | 64 | 1014.9 |
| 20260905080640 | 75 | 180 | 10.0 | 16.0 | 0.00 | 0.00 | 0.00 | 64 | 1014.9 |
| 20260905080256 | 75 | 210 | 11.0 | 18.0 | 0.00 | 0.00 | 0.00 | 64 | 1014.9 |
| 20260905080150 | 75 | 207 | 11.0 | 18.0 | 0.00 | 0.00 | 0.00 | 64 | 1014.9 |
| 20260905075639 | 75 | 200 | 11.0 | 17.0 | 0.00 | 0.00 | 0.00 | 64 | 1014.9 |
| 20260905075256 | 75 | 170 | 12.0 | 17.0 | 0.00 | 0.00 | 0.00 | 64 | 1014.9 |
| 20260905075149 | 75 | 199 | 11.0 | 17.0 | 0.00 | 0.00 | 0.00 | 64 | 1014.8 |
| 20260905074643 | 75 | 217 | 13.0 | 22.0 | 0.00 | 0.00 | 0.00 | 64 | 1014.8 |
| 20260905074240 | 75 | 202 | 13.0 | 22.0 | 0.00 | 0.00 | 0.00 | 64 | 1015.0 |
| 20260905074213 | 75 | 202 | 13.0 | 22.0 | 0.00 | 0.00 | 0.00 | 64 | 1015.0 |
| 20260905073642 | 75 | 175 | 13.0 | 21.0 | 0.00 | 0.00 | 0.00 | 65 | 1015.0 |
| 20260905073238 | 75 | 182 | 13.0 | 21.0 | 0.00 | 0.00 | 0.00 | 65 | 1015.0 |
| 20260905073151 | 75 | 204 | 13.0 | 21.0 | 0.00 | 0.00 | 0.00 | 65 | 1014.9 |
| 20260905072641 | 75 | 203 | 13.0 | 21.0 | 0.00 | 0.00 | 0.00 | 65 | 1015.0 |
| 20260905072257 | 75 | 203 | 12.0 | 22.0 | 0.00 | 0.00 | 0.00 | 66 | 1015.0 |
| 20260905072150 | 75 | 204 | 12.0 | 21.0 | 0.00 | 0.00 | 0.00 | 66 | 1015.0 |
| 20260905071659 | 75 | 219 | 14.0 | 20.0 | 0.00 | 0.00 | 0.00 | 67 | 1015.0 |
| 20260905071314 | 75 | 199 | 13.0 | 19.0 | 0.00 | 0.00 | 0.00 | 67 | 1015.0 |
| 20260905071146 | 75 | 213 | 13.0 | 19.0 | 0.00 | 0.00 | 0.00 | 67 | 1015.0 |
| 20260905070656 | 75 | 226 | 11.0 | 15.0 | 0.00 | 0.00 | 0.00 | 68 | 1015.0 |
| 20260905070313 | 74 | 218 | 10.0 | 14.0 | 0.00 | 0.00 | 0.00 | 68 | 1014.9 |
| 20260905070145 | 74 | 188 | 10.0 | 13.0 | 0.00 | 0.00 | 0.00 | 68 | 1014.9 |
| 20260905065715 | 74 | 238 | 9.0 | 12.0 | 0.00 | 0.00 | 0.00 | 68 | 1014.8 |
| 20260905065249 | 74 | 200 | 7.0 | 12.0 | 0.00 | 0.00 | 0.00 | 68 | 1014.9 |
| 20260905065139 | 74 | 250 | 8.0 | 12.0 | 0.00 | 0.00 | 0.00 | 68 | 1014.9 |
| 20260905064653 | 74 | 187 | 8.0 | 12.0 | 0.00 | 0.00 | 0.00 | 68 | 1015.0 |
| 20260905064245 | 74 | 175 | 8.0 | 12.0 | 0.00 | 0.00 | 0.00 | 68 | 1015.1 |
| 20260905064142 | 74 | 194 | 8.0 | 12.0 | 0.00 | 0.00 | 0.00 | 68 | 1015.0 |
| 20260905063652 | 75 | 166 | 7.0 | 11.0 | 0.00 | 0.00 | 0.00 | 67 | 1015.0 |
| 20260905063249 | 75 | 189 | 8.0 | 11.0 | 0.00 | 0.00 | 0.00 | 67 | 1015.0 |
| 20260905063141 | 75 | 186 | 8.0 | 11.0 | 0.00 | 0.00 | 0.00 | 67 | 1015.1 |
| 20260905062650 | 75 | 192 | 8.0 | 11.0 | 0.00 | 0.00 | 0.00 | 66 | 1014.9 |
| 20260905062247 | 75 | 167 | 6.0 | 12.0 | 0.00 | 0.00 | 0.00 | 65 | 1014.8 |
| 20260905062140 | 75 | 181 | 7.0 | 12.0 | 0.00 | 0.00 | 0.00 | 65 | 1014.8 |
| 20260905061648 | 75 | 194 | 8.0 | 12.0 | 0.00 | 0.00 | 0.00 | 64 | 1014.7 |
| 20260905061245 | 76 | 178 | 8.0 | 14.0 | 0.00 | 0.00 | 0.00 | 63 | 1014.8 |
| 20260905061157 | 76 | 207 | 8.0 | 17.0 | 0.00 | 0.00 | 0.00 | 63 | 1014.8 |
| 20260905060647 | 76 | 175 | 10.0 | 16.0 | 0.00 | 0.00 | 0.00 | 62 | 1014.8 |
| 20260905060244 | 76 | 166 | 12.0 | 19.0 | 0.00 | 0.00 | 0.00 | 61 | 1014.7 |
| 20260905060142 | 76 | 188 | 12.0 | 20.0 | 0.00 | 0.00 | 0.00 | 61 | 1014.8 |
| 20260905055650 | 76 | 183 | 14.0 | 20.0 | 0.00 | 0.00 | 0.00 | 59 | 1014.8 |
| 20260905055246 | 76 | 153 | 12.0 | 17.0 | 0.00 | 0.00 | 0.00 | 59 | 1014.8 |
| 20260905055139 | 76 | 168 | 11.0 | 17.0 | 0.00 | 0.00 | 0.00 | 59 | 1014.8 |
| 20260905054648 | 76 | 160 | 12.0 | 17.0 | 0.00 | 0.00 | 0.00 | 59 | 1014.8 |
| 20260905054245 | 76 | 160 | 10.0 | 17.0 | 0.00 | 0.00 | 0.00 | 59 | 1014.7 |
| 20260905054157 | 76 | 157 | 11.0 | 17.0 | 0.00 | 0.00 | 0.00 | 59 | 1014.7 |
| 20260905053644 | 76 | 182 | 12.0 | 18.0 | 0.00 | 0.00 | 0.00 | 60 | 1014.7 |
| 20260905053241 | 75 | 153 | 11.0 | 16.0 | 0.00 | 0.00 | 0.00 | 61 | 1014.5 |
| 20260905053152 | 75 | 173 | 11.0 | 15.0 | 0.00 | 0.00 | 0.00 | 61 | 1014.5 |
| 20260905052721 | 74 | 165 | 9.0 | 13.0 | 0.00 | 0.00 | 0.00 | 62 | 1014.5 |
| 20260905052313 | 74 | 181 | 9.0 | 13.0 | 0.00 | 0.00 | 0.00 | 63 | 1014.5 |
| 20260905052145 | 74 | 178 | 10.0 | 14.0 | 0.00 | 0.00 | 0.00 | 63 | 1014.5 |
| 20260905051653 | 74 | 167 | 10.0 | 12.0 | 0.00 | 0.00 | 0.00 | 64 | 1014.4 |
| 20260905051310 | 74 | 178 | 9.0 | 11.0 | 0.00 | 0.00 | 0.00 | 65 | 1014.4 |
| 20260905051141 | 74 | 186 | 8.0 | 10.0 | 0.00 | 0.00 | 0.00 | 65 | 1014.4 |
| 20260905050649 | 74 | 159 | 8.0 | 11.0 | 0.00 | 0.00 | 0.00 | 66 | 1014.3 |
| 20260905050245 | 73 | 171 | 8.0 | 11.0 | 0.00 | 0.00 | 0.00 | 66 | 1014.4 |
| 20260905050142 | 73 | 184 | 8.0 | 11.0 | 0.00 | 0.00 | 0.00 | 66 | 1014.3 |
| 20260905045653 | 73 | 157 | 7.0 | 11.0 | 0.00 | 0.00 | 0.00 | 66 | 1014.2 |
| 20260905045247 | 73 | 149 | 8.0 | 11.0 | 0.00 | 0.00 | 0.00 | 65 | 1014.3 |
| 20260905045140 | 73 | 155 | 8.0 | 10.0 | 0.00 | 0.00 | 0.00 | 65 | 1014.3 |
| 20260905044710 | 73 | 147 | 8.0 | 11.0 | 0.00 | 0.00 | 0.00 | 64 | 1014.4 |
| 20260905044245 | 73 | 178 | 7.0 | 10.0 | 0.00 | 0.00 | 0.00 | 64 | 1014.5 |
| 20260905044158 | 73 | 154 | 7.0 | 10.0 | 0.00 | 0.00 | 0.00 | 64 | 1014.5 |
| 20260905043647 | 73 | 170 | 8.0 | 10.0 | 0.00 | 0.00 | 0.00 | 64 | 1014.5 |
| 20260905043245 | 73 | 194 | 9.0 | 12.0 | 0.00 | 0.00 | 0.00 | 64 | 1014.5 |
| 20260905043217 | 74 | 169 | 8.0 | 11.0 | 0.00 | 0.00 | 0.00 | 64 | 1014.5 |
| 20260905042646 | 74 | 164 | 8.0 | 10.0 | 0.00 | 0.00 | 0.00 | 63 | 1014.5 |
| 20260905042306 | 74 | 151 | 7.0 | 9.0 | 0.00 | 0.00 | 0.00 | 62 | 1014.6 |
| 20260905042154 | 74 | 166 | 7.0 | 9.0 | 0.00 | 0.00 | 0.00 | 62 | 1014.6 |
| 20260905041645 | 75 | 167 | 6.0 | 8.0 | 0.00 | 0.00 | 0.00 | 61 | 1014.7 |
| 20260905041242 | 75 | 182 | 6.0 | 9.0 | 0.00 | 0.00 | 0.00 | 61 | 1014.7 |
| 20260905041153 | 75 | 171 | 7.0 | 8.0 | 0.00 | 0.00 | 0.00 | 61 | 1014.8 |
| 20260905040648 | 76 | 171 | 7.0 | 9.0 | 0.00 | 0.00 | 0.00 | 60 | 1014.8 |
| 20260905040300 | 76 | 168 | 7.0 | 11.0 | 0.00 | 0.00 | 0.00 | 60 | 1014.8 |
| 20260905040155 | 76 | 166 | 8.0 | 11.0 | 0.00 | 0.00 | 0.00 | 60 | 1014.8 |
| 20260905035645 | 76 | 163 | 8.0 | 14.0 | 0.00 | 0.00 | 0.00 | 59 | 1014.8 |
| 20260905035301 | 76 | 178 | 9.0 | 14.0 | 0.00 | 0.00 | 0.00 | 59 | 1014.8 |
| 20260905035153 | 76 | 181 | 9.0 | 14.0 | 0.00 | 0.00 | 0.00 | 60 | 1014.7 |
| 20260905034704 | 76 | 152 | 9.0 | 14.0 | 0.00 | 0.00 | 0.00 | 60 | 1014.8 |
| 20260905034238 | 76 | 171 | 7.0 | 10.0 | 0.00 | 0.00 | 0.00 | 60 | 1014.8 |
| 20260905034151 | 76 | 161 | 6.0 | 10.0 | 0.00 | 0.00 | 0.00 | 60 | 1014.8 |
| 20260905033642 | 77 | 131 | 7.0 | 10.0 | 0.00 | 0.00 | 0.00 | 59 | 1014.8 |
| 20260905033258 | 77 | 161 | 7.0 | 10.0 | 0.00 | 0.00 | 0.00 | 58 | 1014.9 |
| 20260905033209 | 77 | 157 | 8.0 | 10.0 | 0.00 | 0.00 | 0.00 | 58 | 1014.8 |
| 20260905032657 | 77 | 151 | 7.0 | 14.0 | 0.00 | 0.00 | 0.00 | 58 | 1014.8 |
| 20260905032251 | 77 | 136 | 9.0 | 14.0 | 0.00 | 0.00 | 0.00 | 58 | 1014.7 |
| 20260905032144 | 77 | 149 | 9.0 | 14.0 | 0.00 | 0.00 | 0.00 | 58 | 1014.7 |
| 20260905031652 | 77 | 168 | 9.0 | 14.0 | 0.00 | 0.00 | 0.00 | 60 | 1014.7 |
| 20260905031248 | 76 | 146 | 9.0 | 14.0 | 0.00 | 0.00 | 0.00 | 61 | 1014.6 |
| 20260905031159 | 76 | 139 | 9.0 | 14.0 | 0.00 | 0.00 | 0.00 | 61 | 1014.7 |
| 20260905030655 | 76 | 126 | 9.0 | 14.0 | 0.00 | 0.00 | 0.00 | 63 | 1014.6 |
| 20260905030248 | 76 | 153 | 9.0 | 11.0 | 0.00 | 0.00 | 0.00 | 63 | 1014.5 |
| 20260905030145 | 75 | 154 | 8.0 | 11.0 | 0.00 | 0.00 | 0.00 | 63 | 1014.5 |
| 20260905025650 | 75 | 157 | 8.0 | 11.0 | 0.00 | 0.00 | 0.00 | 64 | 1014.5 |
| 20260905025247 | 75 | 165 | 7.0 | 10.0 | 0.00 | 0.00 | 0.00 | 65 | 1014.5 |
| 20260905025159 | 75 | 167 | 7.0 | 10.0 | 0.00 | 0.00 | 0.00 | 65 | 1014.4 |
| 20260905024649 | 76 | 160 | 7.0 | 11.0 | 0.00 | 0.00 | 0.00 | 66 | 1014.4 |
| 20260905024245 | 76 | 143 | 9.0 | 11.0 | 0.00 | 0.00 | 0.00 | 65 | 1014.3 |
| 20260905024154 | 76 | 136 | 8.0 | 11.0 | 0.00 | 0.00 | 0.00 | 65 | 1014.3 |
| 20260905023643 | 76 | 142 | 7.0 | 11.0 | 0.00 | 0.00 | 0.00 | 63 | 1014.2 |
| 20260905023301 | 76 | 147 | 8.0 | 10.0 | 0.00 | 0.00 | 0.00 | 63 | 1014.0 |
| 20260905023153 | 76 | 151 | 6.0 | 8.0 | 0.00 | 0.00 | 0.00 | 63 | 1014.0 |
| 20260905022642 | 76 | 155 | 6.0 | 9.0 | 0.00 | 0.00 | 0.00 | 63 | 1014.0 |
| 20260905022259 | 76 | 154 | 6.0 | 10.0 | 0.00 | 0.00 | 0.00 | 63 | 1014.0 |
| 20260905022151 | 76 | 135 | 6.0 | 10.0 | 0.00 | 0.00 | 0.00 | 63 | 1014.0 |
| 20260905021641 | 76 | 151 | 7.0 | 11.0 | 0.00 | 0.00 | 0.00 | 63 | 1013.9 |
| 20260905021317 | 76 | 146 | 7.0 | 11.0 | 0.00 | 0.00 | 0.00 | 63 | 1013.8 |
| 20260905021149 | 76 | 154 | 8.0 | 11.0 | 0.00 | 0.00 | 0.00 | 62 | 1013.8 |
| 20260905020639 | 77 | 146 | 8.0 | 13.0 | 0.00 | 0.00 | 0.00 | 62 | 1013.8 |
| 20260905020255 | 77 | 145 | 8.0 | 13.0 | 0.00 | 0.00 | 0.00 | 61 | 1013.7 |
| 20260905020207 | 77 | 155 | 8.0 | 13.0 | 0.00 | 0.00 | 0.00 | 61 | 1013.7 |
| 20260905015658 | 78 | 142 | 10.0 | 11.0 | 0.00 | 0.00 | 0.00 | 60 | 1013.5 |
| 20260905015249 | 79 | 145 | 7.0 | 11.0 | 0.00 | 0.00 | 0.00 | 60 | 1013.5 |
| 20260905015146 | 79 | 140 | 6.0 | 10.0 | 0.00 | 0.00 | 0.00 | 59 | 1013.5 |
| 20260905014716 | 79 | 142 | 6.0 | 10.0 | 0.00 | 0.00 | 0.00 | 58 | 1013.4 |
| 20260905014252 | 80 | 147 | 2.0 | 8.0 | 0.00 | 0.00 | 0.00 | 59 | 1013.3 |
| 20260905014144 | 80 | 150 | 3.0 | 8.0 | 0.00 | 0.00 | 0.00 | 58 | 1013.3 |
| 20260905013654 | 81 | 130 | 2.0 | 4.0 | 0.00 | 0.00 | 0.00 | 58 | 1013.4 |
| 20260905013251 | 81 | 94 | 2.0 | 4.0 | 0.00 | 0.00 | 0.00 | 56 | 1013.4 |
| 20260905013145 | 81 | 82 | 2.0 | 4.0 | 0.00 | 0.00 | 0.00 | 56 | 1013.4 |
| 20260905012655 | 82 | 149 | 0.0 | 2.0 | 0.00 | 0.00 | 0.00 | 54 | 1013.4 |
| 20260905012312 | 83 | 149 | 1.0 | 3.0 | 0.00 | 0.00 | 0.00 | 52 | 1013.3 |
| 20260905012203 | 83 | 149 | 1.0 | 5.0 | 0.00 | 0.00 | 0.00 | 52 | 1013.3 |
| 20260905011652 | 83 | 149 | 2.0 | 8.0 | 0.00 | 0.00 | 0.00 | 51 | 1013.3 |
| 20260905011249 | 83 | 157 | 4.0 | 8.0 | 0.00 | 0.00 | 0.00 | 51 | 1013.3 |
| 20260905011142 | 83 | 165 | 4.0 | 13.0 | 0.00 | 0.00 | 0.00 | 51 | 1013.2 |
| 20260905010652 | 84 | 172 | 7.0 | 13.0 | 0.00 | 0.00 | 0.00 | 50 | 1013.1 |
| 20260905010250 | 84 | 169 | 8.0 | 11.0 | 0.00 | 0.00 | 0.00 | 50 | 1012.9 |
| 20260905010147 | 84 | 186 | 7.0 | 11.0 | 0.00 | 0.00 | 0.00 | 50 | 1013.0 |
| 20260905005658 | 85 | 204 | 6.0 | 10.0 | 0.00 | 0.00 | 0.00 | 50 | 1012.9 |
| 20260905005252 | 85 | 196 | 6.0 | 10.0 | 0.00 | 0.00 | 0.00 | 49 | 1012.8 |
| 20260905005146 | 85 | 218 | 7.0 | 10.0 | 0.00 | 0.00 | 0.00 | 48 | 1012.8 |
| 20260905004714 | 86 | 168 | 7.0 | 13.0 | 0.00 | 0.00 | 0.00 | 47 | 1012.8 |
| 20260905004247 | 86 | 206 | 8.0 | 13.0 | 0.00 | 0.00 | 0.00 | 47 | 1012.9 |
| 20260905004140 | 86 | 200 | 7.0 | 13.0 | 0.00 | 0.00 | 0.00 | 46 | 1012.9 |
| 20260905003650 | 87 | 188 | 7.0 | 16.0 | 0.00 | 0.00 | 0.00 | 47 | 1013.0 |
| 20260905003246 | 87 | 175 | 9.0 | 18.0 | 0.00 | 0.00 | 0.00 | 45 | 1012.9 |
| 20260905003157 | 87 | 221 | 11.0 | 18.0 | 0.00 | 0.00 | 0.00 | 45 | 1012.9 |
| 20260905002645 | 87 | 210 | 12.0 | 18.0 | 0.00 | 0.00 | 0.00 | 47 | 1013.0 |
| 20260905002305 | 87 | 191 | 12.0 | 20.0 | 0.00 | 0.00 | 0.00 | 46 | 1013.0 |
| 20260905002153 | 87 | 199 | 13.0 | 20.0 | 0.00 | 0.00 | 0.00 | 46 | 1013.0 |
| 20260905001644 | 88 | 184 | 15.0 | 31.0 | 0.00 | 0.00 | 0.00 | 44 | 1013.0 |
| 20260905001241 | 88 | 181 | 20.0 | 31.0 | 0.00 | 0.00 | 0.00 | 44 | 1012.9 |
| 20260905001158 | 88 | 215 | 22.0 | 32.0 | 0.00 | 0.00 | 0.00 | 44 | 1012.9 |
| 20260905000648 | 89 | 178 | 20.0 | 34.0 | 0.00 | 0.00 | 0.00 | 43 | 1012.7 |
| 20260905000244 | 90 | 175 | 17.0 | 26.0 | 0.00 | 0.00 | 0.00 | 41 | 1012.8 |
| 20260905000157 | 91 | 177 | 17.0 | 26.0 | 0.00 | 0.00 | 0.00 | 41 | 1012.9 |
| 20260904235706 | 92 | 190 | 16.0 | 28.0 | 0.00 | 0.00 | 0.00 | 40 | 1012.8 |
| 20260904235242 | 93 | 184 | 7.0 | 15.0 | 0.00 | 0.00 | 0.00 | 40 | 1012.7 |
| 20260904235154 | 93 | 124 | 7.0 | 12.0 | 0.00 | 0.00 | 0.00 | 40 | 1012.6 |
| 20260904234644 | 93 | 154 | 8.0 | 12.0 | 0.00 | 0.00 | 0.00 | 38 | 1012.4 |
| 20260904234240 | 93 | 172 | 6.0 | 11.0 | 0.00 | 0.00 | 0.00 | 39 | 1012.4 |
| 20260904234154 | 93 | 142 | 6.0 | 11.0 | 0.00 | 0.00 | 0.00 | 39 | 1012.4 |
| 20260904233643 | 93 | 158 | 5.0 | 11.0 | 0.00 | 0.00 | 0.00 | 38 | 1012.4 |
| 20260904233239 | 94 | 348 | 3.0 | 9.0 | 0.00 | 0.00 | 0.00 | 38 | 1012.4 |
| 20260904233152 | 94 | 167 | 4.0 | 9.0 | 0.00 | 0.00 | 0.00 | 38 | 1012.4 |
| 20260904232640 | 94 | 167 | 4.0 | 8.0 | 0.00 | 0.00 | 0.00 | 39 | 1012.4 |
| 20260904232256 | 94 | 187 | 4.0 | 8.0 | 0.00 | 0.00 | 0.00 | 39 | 1012.4 |
| 20260904232149 | 94 | 134 | 5.0 | 8.0 | 0.00 | 0.00 | 0.00 | 37 | 1012.4 |
| 20260904231643 | 94 | 159 | 6.0 | 8.0 | 0.00 | 0.00 | 0.00 | 37 | 1012.5 |
| 20260904231241 | 95 | 143 | 3.0 | 7.0 | 0.00 | 0.00 | 0.00 | 37 | 1012.4 |
| 20260904231153 | 95 | 144 | 2.0 | 7.0 | 0.00 | 0.00 | 0.00 | 37 | 1012.4 |
| 20260904230642 | 95 | 240 | 3.0 | 7.0 | 0.00 | 0.00 | 0.00 | 36 | 1012.3 |
| 20260904230238 | 96 | 134 | 2.0 | 3.0 | 0.00 | 0.00 | 0.00 | 37 | 1012.2 |
| 20260904230152 | 96 | 155 | 2.0 | 3.0 | 0.00 | 0.00 | 0.00 | 36 | 1012.2 |
| 20260904225642 | 96 | 225 | 1.0 | 3.0 | 0.00 | 0.00 | 0.00 | 33 | 1012.1 |
| 20260904225238 | 96 | 225 | 0.0 | 5.0 | 0.00 | 0.00 | 0.00 | 35 | 1012.1 |
| 20260904225151 | 96 | 225 | 0.0 | 5.0 | 0.00 | 0.00 | 0.00 | 35 | 1012.0 |
| 20260904224641 | 97 | 225 | 4.0 | 5.0 | 0.00 | 0.00 | 0.00 | 34 | 1012.0 |
| 20260904224239 | 97 | 234 | 2.0 | 3.0 | 0.00 | 0.00 | 0.00 | 34 | 1012.1 |
| 20260904224212 | 97 | 235 | 3.0 | 3.0 | 0.00 | 0.00 | 0.00 | 33 | 1012.1 |
| 20260904223640 | 97 | 215 | 1.0 | 5.0 | 0.00 | 0.00 | 0.00 | 32 | 1012.1 |
| 20260904223257 | 97 | 269 | 3.0 | 5.0 | 0.00 | 0.00 | 0.00 | 34 | 1012.0 |
| 20260904223149 | 97 | 255 | 1.0 | 5.0 | 0.00 | 0.00 | 0.00 | 32 | 1012.0 |
| 20260904222643 | 98 | 270 | 3.0 | 7.0 | 0.00 | 0.00 | 0.00 | 34 | 1012.1 |
| 20260904222240 | 98 | 235 | 4.0 | 7.0 | 0.00 | 0.00 | 0.00 | 34 | 1012.1 |
| 20260904222213 | 98 | 254 | 5.0 | 7.0 | 0.00 | 0.00 | 0.00 | 34 | 1012.1 |
| 20260904221640 | 98 | 229 | 3.0 | 5.0 | 0.00 | 0.00 | 0.00 | 35 | 1012.1 |
| 20260904221312 | 98 | 209 | 4.0 | 5.0 | 0.00 | 0.00 | 0.00 | 33 | 1012.1 |
| 20260904221208 | 98 | 235 | 3.0 | 6.0 | 0.00 | 0.00 | 0.00 | 32 | 1012.1 |
| 20260904220657 | 98 | 260 | 2.0 | 7.0 | 0.00 | 0.00 | 0.00 | 35 | 1012.1 |
| 20260904220314 | 98 | 229 | 4.0 | 9.0 | 0.00 | 0.00 | 0.00 | 34 | 1012.1 |
| 20260904220146 | 98 | 275 | 5.0 | 9.0 | 0.00 | 0.00 | 0.00 | 36 | 1012.1 |
| 20260904215715 | 98 | 231 | 5.0 | 9.0 | 0.00 | 0.00 | 0.00 | 35 | 1012.1 |
| 20260904215250 | 98 | 275 | 5.0 | 8.0 | 0.00 | 0.00 | 0.00 | 34 | 1012.1 |
| 20260904215143 | 98 | 227 | 5.0 | 8.0 | 0.00 | 0.00 | 0.00 | 33 | 1012.2 |
| 20260904214651 | 98 | 298 | 3.0 | 10.0 | 0.00 | 0.00 | 0.00 | 37 | 1012.1 |
| 20260904214247 | 98 | 309 | 4.0 | 10.0 | 0.00 | 0.00 | 0.00 | 34 | 1012.1 |
| 20260904214140 | 98 | 270 | 5.0 | 10.0 | 0.00 | 0.00 | 0.00 | 34 | 1012.1 |
| 20260904213650 | 98 | 177 | 1.0 | 4.0 | 0.00 | 0.00 | 0.00 | 33 | 1012.1 |
| 20260904213247 | 98 | 129 | 2.0 | 4.0 | 0.00 | 0.00 | 0.00 | 33 | 1012.1 |
| 20260904213159 | 98 | 136 | 2.0 | 4.0 | 0.00 | 0.00 | 0.00 | 33 | 1012.1 |
| 20260904212648 | 98 | 281 | 1.0 | 5.0 | 0.00 | 0.00 | 0.00 | 32 | 1012.1 |
| 20260904212245 | 98 | 192 | 3.0 | 7.0 | 0.00 | 0.00 | 0.00 | 35 | 1012.1 |
| 20260904212142 | 98 | 181 | 3.0 | 7.0 | 0.00 | 0.00 | 0.00 | 34 | 1012.1 |
| 20260904211652 | 97 | 204 | 3.0 | 7.0 | 0.00 | 0.00 | 0.00 | 32 | 1012.3 |
| 20260904211248 | 97 | 200 | 4.0 | 8.0 | 0.00 | 0.00 | 0.00 | 35 | 1012.3 |
| 20260904211141 | 97 | 193 | 4.0 | 9.0 | 0.00 | 0.00 | 0.00 | 35 | 1012.2 |
| 20260904210712 | 97 | 227 | 5.0 | 9.0 | 0.00 | 0.00 | 0.00 | 34 | 1012.3 |
| 20260904210246 | 98 | 244 | 5.0 | 7.0 | 0.00 | 0.00 | 0.00 | 36 | 1012.3 |
| 20260904210139 | 98 | 216 | 5.0 | 8.0 | 0.00 | 0.00 | 0.00 | 33 | 1012.4 |
| 20260904205649 | 98 | 144 | 2.0 | 11.0 | 0.00 | 0.00 | 0.00 | 32 | 1012.3 |
| 20260904205306 | 99 | 175 | 6.0 | 11.0 | 0.00 | 0.00 | 0.00 | 32 | 1012.4 |
| 20260904205216 | 99 | 160 | 6.0 | 11.0 | 0.00 | 0.00 | 0.00 | 33 | 1012.4 |
| 20260904204645 | 99 | 188 | 2.0 | 11.0 | 0.00 | 0.00 | 0.00 | 34 | 1012.5 |
| 20260904204241 | 99 | 146 | 6.0 | 11.0 | 0.00 | 0.00 | 0.00 | 33 | 1012.5 |
| 20260904204153 | 99 | 137 | 7.0 | 11.0 | 0.00 | 0.00 | 0.00 | 34 | 1012.6 |
| 20260904203642 | 99 | 171 | 7.0 | 14.0 | 0.00 | 0.00 | 0.00 | 33 | 1012.6 |
| 20260904203318 | 99 | 204 | 7.0 | 14.0 | 0.00 | 0.00 | 0.00 | 32 | 1012.7 |
| 20260904203149 | 99 | 186 | 9.0 | 14.0 | 0.00 | 0.00 | 0.00 | 34 | 1012.7 |
| 20260904202657 | 98 | 140 | 8.0 | 12.0 | 0.00 | 0.00 | 0.00 | 35 | 1012.7 |
| 20260904202254 | 98 | 136 | 5.0 | 14.0 | 0.00 | 0.00 | 0.00 | 34 | 1012.7 |
| 20260904202207 | 98 | 142 | 3.0 | 15.0 | 0.00 | 0.00 | 0.00 | 35 | 1012.7 |
| 20260904201716 | 98 | 97 | 6.0 | 15.0 | 0.00 | 0.00 | 0.00 | 36 | 1012.7 |
| 20260904201249 | 98 | 130 | 5.0 | 13.0 | 0.00 | 0.00 | 0.00 | 36 | 1012.7 |
| 20260904201206 | 98 | 148 | 5.0 | 13.0 | 0.00 | 0.00 | 0.00 | 36 | 1012.8 |
| 20260904200654 | 97 | 329 | 5.0 | 13.0 | 0.00 | 0.00 | 0.00 | 39 | 1012.8 |
| 20260904200307 | 97 | 138 | 4.0 | 14.0 | 0.00 | 0.00 | 0.00 | 36 | 1012.8 |
| 20260904200144 | 97 | 162 | 6.0 | 15.0 | 0.00 | 0.00 | 0.00 | 40 | 1012.9 |
| 20260904195653 | 96 | 142 | 9.0 | 15.0 | 0.00 | 0.00 | 0.00 | 38 | 1012.9 |
| 20260904195251 | 96 | 140 | 7.0 | 14.0 | 0.00 | 0.00 | 0.00 | 40 | 1012.9 |
| 20260904195202 | 96 | 146 | 6.0 | 14.0 | 0.00 | 0.00 | 0.00 | 39 | 1013.0 |
| 20260904194651 | 95 | 182 | 10.0 | 14.0 | 0.00 | 0.00 | 0.00 | 38 | 1013.0 |
| 20260904194248 | 95 | 174 | 7.0 | 14.0 | 0.00 | 0.00 | 0.00 | 40 | 1013.0 |
| 20260904194201 | 95 | 147 | 7.0 | 14.0 | 0.00 | 0.00 | 0.00 | 42 | 1013.0 |
| 20260904193649 | 95 | 92 | 8.0 | 14.0 | 0.00 | 0.00 | 0.00 | 40 | 1013.1 |
| 20260904193246 | 95 | 145 | 8.0 | 15.0 | 0.00 | 0.00 | 0.00 | 41 | 1013.1 |
| 20260904193139 | 95 | 136 | 8.0 | 14.0 | 0.00 | 0.00 | 0.00 | 39 | 1013.0 |
| 20260904192651 | 94 | 163 | 6.0 | 13.0 | 0.00 | 0.00 | 0.00 | 41 | 1013.1 |
| 20260904192247 | 94 | 156 | 9.0 | 13.0 | 0.00 | 0.00 | 0.00 | 42 | 1013.1 |
| 20260904192140 | 94 | 149 | 9.0 | 13.0 | 0.00 | 0.00 | 0.00 | 41 | 1013.1 |
| 20260904191655 | 94 | 138 | 7.0 | 14.0 | 0.00 | 0.00 | 0.00 | 42 | 1013.1 |
| 20260904191246 | 95 | 138 | 10.0 | 14.0 | 0.00 | 0.00 | 0.00 | 41 | 1013.2 |
| 20260904191142 | 95 | 117 | 10.0 | 14.0 | 0.00 | 0.00 | 0.00 | 41 | 1013.2 |
| 20260904190651 | 95 | 128 | 8.0 | 13.0 | 0.00 | 0.00 | 0.00 | 43 | 1013.2 |
| 20260904190247 | 95 | 140 | 6.0 | 12.0 | 0.00 | 0.00 | 0.00 | 41 | 1013.3 |
| 20260904190219 | 95 | 163 | 6.0 | 12.0 | 0.00 | 0.00 | 0.00 | 43 | 1013.3 |
| 20260904185708 | 96 | 160 | 8.0 | 15.0 | 0.00 | 0.00 | 0.00 | 42 | 1013.3 |
| 20260904185244 | 96 | 181 | 9.0 | 15.0 | 0.00 | 0.00 | 0.00 | 40 | 1013.3 |
| 20260904185157 | 96 | 134 | 9.0 | 15.0 | 0.00 | 0.00 | 0.00 | 41 | 1013.3 |
| 20260904184648 | 96 | 176 | 5.0 | 14.0 | 0.00 | 0.00 | 0.00 | 37 | 1013.3 |
| 20260904184244 | 96 | 158 | 7.0 | 14.0 | 0.00 | 0.00 | 0.00 | 38 | 1013.4 |
| 20260904184156 | 95 | 153 | 9.0 | 14.0 | 0.00 | 0.00 | 0.00 | 39 | 1013.4 |
| 20260904183707 | 95 | 148 | 6.0 | 9.0 | 0.00 | 0.00 | 0.00 | 40 | 1013.4 |
| 20260904183242 | 94 | 204 | 5.0 | 10.0 | 0.00 | 0.00 | 0.00 | 38 | 1013.4 |
| 20260904183155 | 94 | 186 | 5.0 | 10.0 | 0.00 | 0.00 | 0.00 | 39 | 1013.4 |
| 20260904182644 | 94 | 190 | 7.0 | 10.0 | 0.00 | 0.00 | 0.00 | 40 | 1013.5 |
| 20260904182240 | 94 | 192 | 5.0 | 7.0 | 0.00 | 0.00 | 0.00 | 38 | 1013.6 |
| 20260904182157 | 94 | 205 | 5.0 | 9.0 | 0.00 | 0.00 | 0.00 | 38 | 1013.6 |
| 20260904181647 | 94 | 219 | 2.0 | 7.0 | 0.00 | 0.00 | 0.00 | 39 | 1013.7 |
| 20260904181243 | 93 | 213 | 3.0 | 9.0 | 0.00 | 0.00 | 0.00 | 42 | 1013.6 |
| 20260904181156 | 93 | 206 | 4.0 | 9.0 | 0.00 | 0.00 | 0.00 | 41 | 1013.6 |
| 20260904180646 | 93 | 207 | 6.0 | 9.0 | 0.00 | 0.00 | 0.00 | 40 | 1013.7 |
| 20260904180256 | 93 | 178 | 6.0 | 8.0 | 0.00 | 0.00 | 0.00 | 41 | 1013.7 |
| 20260904180148 | 93 | 143 | 5.0 | 9.0 | 0.00 | 0.00 | 0.00 | 40 | 1013.8 |
| 20260904175718 | 92 | 159 | 6.0 | 10.0 | 0.00 | 0.00 | 0.00 | 40 | 1013.8 |
| 20260904175255 | 92 | 198 | 6.0 | 12.0 | 0.00 | 0.00 | 0.00 | 43 | 1013.9 |
| 20260904175207 | 92 | 192 | 7.0 | 12.0 | 0.00 | 0.00 | 0.00 | 43 | 1013.9 |
| 20260904174656 | 92 | 182 | 8.0 | 12.0 | 0.00 | 0.00 | 0.00 | 45 | 1014.0 |
| 20260904174253 | 91 | 225 | 6.0 | 10.0 | 0.00 | 0.00 | 0.00 | 46 | 1014.0 |
| 20260904174146 | 91 | 257 | 6.0 | 10.0 | 0.00 | 0.00 | 0.00 | 45 | 1014.0 |
| 20260904173657 | 90 | 223 | 5.0 | 10.0 | 0.00 | 0.00 | 0.00 | 45 | 1014.1 |
| 20260904173253 | 88 | 182 | 6.0 | 11.0 | 0.00 | 0.00 | 0.00 | 51 | 1014.1 |
| 20260904173207 | 88 | 236 | 6.0 | 9.0 | 0.00 | 0.00 | 0.00 | 52 | 1014.1 |
| 20260904172659 | 87 | 228 | 7.0 | 12.0 | 0.00 | 0.00 | 0.00 | 51 | 1014.1 |
| 20260904172252 | 87 | 186 | 6.0 | 12.0 | 0.00 | 0.00 | 0.00 | 49 | 1014.1 |
| 20260904172219 | 87 | 220 | 7.0 | 12.0 | 0.00 | 0.00 | 0.00 | 49 | 1014.1 |
| 20260904171709 | 87 | 198 | 8.0 | 12.0 | 0.00 | 0.00 | 0.00 | 48 | 1014.1 |
| 20260904171244 | 87 | 179 | 8.0 | 12.0 | 0.00 | 0.00 | 0.00 | 50 | 1014.0 |
| 20260904171158 | 87 | 197 | 8.0 | 12.0 | 0.00 | 0.00 | 0.00 | 50 | 1014.0 |
| 20260904170647 | 87 | 190 | 7.0 | 11.0 | 0.00 | 0.00 | 0.00 | 50 | 1013.9 |
| 20260904170244 | 87 | 236 | 8.0 | 11.0 | 0.00 | 0.00 | 0.00 | 52 | 1013.9 |
| 20260904170157 | 86 | 219 | 8.0 | 11.0 | 0.00 | 0.00 | 0.00 | 51 | 1013.8 |
| 20260904165708 | 86 | 194 | 9.0 | 13.0 | 0.00 | 0.00 | 0.00 | 53 | 1013.9 |
| 20260904165242 | 85 | 211 | 8.0 | 11.0 | 0.00 | 0.00 | 0.00 | 55 | 1013.9 |
| 20260904165153 | 85 | 204 | 7.0 | 11.0 | 0.00 | 0.00 | 0.00 | 53 | 1013.9 |
| 20260904164703 | 84 | 199 | 8.0 | 11.0 | 0.00 | 0.00 | 0.00 | 53 | 1013.9 |
| 20260904164320 | 83 | 175 | 5.0 | 11.0 | 0.00 | 0.00 | 0.00 | 57 | 1014.0 |
| 20260904164211 | 83 | 191 | 5.0 | 11.0 | 0.00 | 0.00 | 0.00 | 57 | 1013.9 |
| 20260904163639 | 81 | 206 | 7.0 | 11.0 | 0.00 | 0.00 | 0.00 | 58 | 1014.0 |
| 20260904163256 | 81 | 228 | 7.0 | 12.0 | 0.00 | 0.00 | 0.00 | 60 | 1014.0 |
| 20260904163150 | 81 | 206 | 6.0 | 12.0 | 0.00 | 0.00 | 0.00 | 60 | 1014.0 |
| 20260904162658 | 80 | 234 | 9.0 | 12.0 | 0.00 | 0.00 | 0.00 | 60 | 1014.0 |
| 20260904162254 | 80 | 193 | 7.0 | 14.0 | 0.00 | 0.00 | 0.00 | 62 | 1013.9 |
| 20260904162207 | 80 | 209 | 7.0 | 14.0 | 0.00 | 0.00 | 0.00 | 62 | 1013.8 |
| 20260904161658 | 80 | 223 | 11.0 | 14.0 | 0.00 | 0.00 | 0.00 | 61 | 1013.7 |
| 20260904161250 | 80 | 232 | 8.0 | 12.0 | 0.00 | 0.00 | 0.00 | 60 | 1013.6 |
| 20260904161146 | 80 | 234 | 8.0 | 12.0 | 0.00 | 0.00 | 0.00 | 59 | 1013.6 |
| 20260904160657 | 81 | 260 | 8.0 | 11.0 | 0.00 | 0.00 | 0.00 | 57 | 1013.7 |
| 20260904160253 | 81 | 238 | 2.0 | 12.0 | 0.00 | 0.00 | 0.00 | 54 | 1013.7 |
| 20260904160206 | 82 | 123 | 2.0 | 13.0 | 0.00 | 0.00 | 0.00 | 53 | 1013.7 |
| 20260904155656 | 82 | 279 | 8.0 | 34.0 | 0.00 | 0.00 | 0.00 | 49 | 1013.7 |
| 20260904155311 | 82 | 45 | 8.0 | 34.0 | 0.00 | 0.00 | 0.00 | 47 | 1013.1 |
| 20260904155142 | 81 | 136 | 10.0 | 34.0 | 0.00 | 0.00 | 0.00 | 42 | 1013.1 |
| 20260904154651 | 78 | 169 | 14.0 | 17.0 | 0.00 | 0.00 | 0.00 | 62 | 1013.7 |
| 20260904154244 | 78 | 200 | 9.0 | 12.0 | 0.00 | 0.00 | 0.00 | 60 | 1013.8 |
| 20260904154156 | 78 | 192 | 8.0 | 12.0 | 0.00 | 0.00 | 0.00 | 61 | 1013.8 |
| 20260904153646 | 78 | 244 | 7.0 | 12.0 | 0.00 | 0.00 | 0.00 | 61 | 1013.8 |
| 20260904153302 | 78 | 205 | 7.0 | 12.0 | 0.00 | 0.00 | 0.00 | 62 | 1013.9 |
| 20260904153154 | 78 | 215 | 7.0 | 12.0 | 0.00 | 0.00 | 0.00 | 61 | 1013.8 |
| 20260904152642 | 78 | 198 | 9.0 | 14.0 | 0.00 | 0.00 | 0.00 | 61 | 1013.8 |
| 20260904152259 | 78 | 200 | 8.0 | 14.0 | 0.00 | 0.00 | 0.00 | 61 | 1013.8 |
| 20260904152212 | 78 | 198 | 8.0 | 17.0 | 0.00 | 0.00 | 0.00 | 61 | 1013.8 |
| 20260904151645 | 78 | 192 | 11.0 | 17.0 | 0.00 | 0.00 | 0.00 | 60 | 1013.8 |
| 20260904151257 | 77 | 193 | 10.0 | 13.0 | 0.00 | 0.00 | 0.00 | 61 | 1013.8 |
| 20260904151155 | 77 | 203 | 9.0 | 13.0 | 0.00 | 0.00 | 0.00 | 61 | 1013.8 |